Details for UPS at KDFW




Go Back


Latest METAR
Local Time

KDFW 240753Z 17006KT 10SM SCT250 23/19 A3003 RMK AO2 SLP161 T02280194

24/05/2018, 03:00:22

Description
Results
UPS Logo
Number of Pilots based at KDFW
0 Pilots Based here
Number of UPS Flights Departed from KDFW
0 Flights Departed
Number of UPS Flights Arrived at KDFW
0 Flights Arrived
Number of UPS Schedules Departing from KDFW
85 Schedules
Number of UPS Schedules Arriving at KDFW
87 Schedules
Number of UPS Schedules Departing from KDFW availible today
19 Schedules Today
Number of UPS Schedules Arriving at KDFW availible today
21 Schedules Today
Average Landing Rate at KDFW
-275 fpm
UPS Average Landing Rate at KDFW
0 fpm
Total Fuel Purchased at KDFW by UPS
0.00 kgs / 0.00 lbs

Pilots Based at KDFW


Pilot ID
Pilot Name
Pilot Rank
No. of Flights
No. of Flying Hours
There are no pilots assigned to this hub!   Will you be the first?
Content